Regional Weather Roundup
Issued by NWS Grand Forks, ND

Home | Current Version | Previous Version | Text Only | Print | Product List | Glossary On
Versions: 1 2 3 4 5 6 7 8 9 10 11 12 13 14 15 16 17 18 19 20 21 22 23 24 25 26 27 28 29 30 31 32 33 34 35 36 37 38 39 40 41 42 43 44 45 46 47 48 49 50
000
ASUS43 KFGF 271431
RWRFGF
PRAIRIE TO PINES  WEATHER ROUNDUP
NATIONAL WEATHER SERVICE EASTERN NORTH DAKOTA/GRAND FORKS ND
800 AM CST TUE JAN 27 2015

 **SATELLITE DATA USED TO AUGMENT SKY COVER AT AUTOMATED STATIONS**
 *****  WEATHER ACROSS EASTERN NORTH DAKOTA  *****

CITY           SKY/WX    TMP DP  RH WIND       PRES   REMARKS
GRAND FORKS    FOG       27  25  92 SE13      30.03S VSB 3/4 WCI  16
GRAND FRKS AFB CLOUDY    25  23  93 S8        30.04R WCI  16
DEVILS LAKE    PTCLDY    27  25  93 SE8       29.94R WCI  18
FARGO          FOG       27  25  92 SE12      30.06S VSB 1/2 WCI  17
WAHPETON ARPT  CLOUDY    28  27  93 SE9       30.09S VSB 1   WCI  20
$$

 ***** WEATHER ACROSS CENTRAL AND WESTERN NORTH DAKOTA  *****

CITY           SKY/WX    TMP DP  RH WIND       PRES   REMARKS
BISMARCK       PTCLDY    31  28  89 SE8       29.91F WCI  23
MINOT          PTCLDY    30  27  88 S5        29.84S
JAMESTOWN      PTCLDY    29  27  92 SE10      29.98R WCI  20
MINOT AFB      PTCLDY    26  26 100 S5        29.84S WCI  20
GARRISON         N/A     28  26  92 SE5       29.85F WCI  23
WILLISTON      CLOUDY    29  27  92 S5        29.83S WCI  24
DICKINSON      PTCLDY    39  30  70 W7        29.83S
HETTINGER      CLEAR     29  26  89 W3        29.89S
$$

 *****  OTHER AIRPORT OBSERVATIONS IN OUR AREA  *****

CITY           SKY/WX    TMP DP  RH WIND       PRES   REMARKS
WALHALLA         N/A     25  25 100 S10       29.99S WCI  15
GRAFTON AIRPOR NOT AVBL
VALLEY CITY AR CLOUDY    27  27 100 S12       30.01R FOG     WCI  16
CANDO          FAIR      23  23 100 SE10      29.94S WCI  12
CAVALIER APRT  CLOUDY    25  25 100 S10       30.01S FOG     WCI  15
GWINNER        CLOUDY    30  30 100 SE10      30.04S VSB 0   WCI  21
SHEYENNE NWR     N/A     26  26  98 SE6       29.95S WCI  19
ROLLA          FAIR      27  27 100 S8        29.90F WCI  18
 ***** THE ABOVE OBSERVATIONS ARE NON NWS ARE NOT QUALITY
       CONTROLLED AND MAY MIS-REPORT RAIN FOR SNOW...
$$

  *****  WEATHER ACROSS NORTHERN MINNESOTA  *****

CITY           SKY/WX    TMP DP  RH WIND       PRES   REMARKS
FLAG ISLAND    CLOUDY    21  21 100 S7        30.04S FOG     WCI  13
WARROAD        CLOUDY    21  18  86 SW3       30.07R FOG
ROSEAU         FOG       23  19  86 S6        30.05R VSB 1   WCI  16
HALLOCK        CLOUDY    27  25  93 S10       30.04S FOG     WCI  17
THF RVR FALLS  CLOUDY    25  23  93 S8        30.06R VSB 1/2 WCI  16
BAUDETTE       CLOUDY    23  21  92 S5        30.05S WCI  17
WASKISH        CLOUDY    25  23  93 CALM      30.07S
CROOKSTON      CLOUDY    27  25  93 S8        30.08R FOG     WCI  18
STEPHEN NDAWN    N/A     25  25 100 S8          N/A  WCI  16
GREENBUSH NDAW   N/A     23  23 100 S7          N/A  WCI  15
$$
  *****  WEATHER ACROSS CENTRAL AND WEST MINNESOTA  *****

CITY           SKY/WX    TMP DP  RH WIND       PRES   REMARKS
FOSSTON        CLOUDY    21  21 100 SE8       30.05S WCI  12
BEMIDJI        CLOUDY    25  24  97 S8        30.06R WCI  16
PARK RAPIDS    CLOUDY    27  25  92 S8        30.07S WCI  19
ELBOW LAKE     CLOUDY    27  27  99 SE8       30.09R FOG     WCI  19
WADENA         CLOUDY    27  25  93 SE8       30.09R WCI  18
DETROIT LAKES  FOG       27  27 100 SE9       30.07S VSB 3/4 WCI  17
MOORHEAD       FOG       28  28 100 S12       30.08S VSB 3/4 WCI  18
FERGUS FALLS   FOG       27  27 100 S8        30.13R VSB 1/2 WCI  18
MORRIS MN      CLOUDY    28  28 100 SE8       30.10R FOG     WCI  20
STAPLES        CLOUDY    27  25  93 SE6       30.09R WCI  20
$$
  *****  WEATHER ELSEWHERE ACROSS MINNESOTA  *****

CITY           SKY/WX    TMP DP  RH WIND       PRES   REMARKS
DULUTH         CLOUDY    25  21  85 SE5       30.10R WCI  19
INTRNTL FALLS  CLOUDY    22  20  92 SW3       30.07S
ELY            CLOUDY    21  21 100 CALM      30.09R FOG
CLOQUET        CLOUDY    27  21  80 CALM      30.11R
WHEATON        FOG       27  27 100 SE7       30.11S VSB 3/4 WCI  19
BRAINERD       CLOUDY    29  24  82 SE6       30.10R WCI  23
HIBBING        CLOUDY    25  21  85 SE3       30.09R
ALEXANDRIA     CLOUDY    28  26  92 SE9       30.09S WCI  19
SAINT CLOUD    CLOUDY    31  26  82 CALM      30.12R
MINNEAPOLIS    CLOUDY    32  24  72 NE6       30.13R
$$

  *****  WEATHER ACROSS SOUTH DAKOTA  *****

CITY           SKY/WX    TMP DP  RH WIND       PRES   REMARKS
SIOUX FALLS    FOG       28  27  96 E7        30.09R VSB 1/8 WCI  21
BROOKINGS      NOT AVBL
WATERTOWN      CLEAR     26  24  92 S6        30.04R WCI  19
HURON          CLEAR     29  27  92 SE7       30.04R WCI  22
SISSETON         N/A     28  28 100 S10       30.07R WCI  19
ABERDEEN       MOCLDY    28  25  88 SE7       30.02F WCI  21
MITCHELL       CLEAR     31  29  92 SE9       30.06R WCI  23
PIERRE         PTCLDY    31  28  89 SE8       29.94S WCI  23
MOBRIDGE       CLEAR     30  27  88 SE8       29.92R WCI  22
RAPID CITY     CLEAR     45  25  45 NW10      29.95R
$$

  *****  SOME WEATHER IN NEARBY STATES *****

CITY           SKY/WX    TMP DP  RH WIND       PRES   REMARKS
GLASGOW MT     PTCLDY    30  27  88 SE3       29.84R
GREAT FALLS MT CLOUDY    48  28  46 SW6       29.90S
CHEYENNE WY    CLEAR     44  18  35 W9        30.16R
SCOTTSBLUFF NE   N/A    N/A N/A N/A MISG      30.08R
OMAHA NE       CLEAR     28  25  88 SE3       30.13R
DES MOINES IA  PTCLDY    30  27  88 NW3       30.14R
DAVENPORT IA   CLOUDY    29  23  78 NE10      30.12R WCI  20
CHICAGO IL     CLOUDY    28  24  85 NE9       30.07R WCI  19
EAU CLAIRE WI  CLOUDY    27  22  81 CALM      30.14R
LA CROSSE WI   CLOUDY    30  22  72 N5        30.15R
$$

  *****  SOME NATIONAL WEATHER *****

CITY           SKY/WX    TMP DP  RH WIND       PRES   REMARKS
LA GUARDIA NY  LGT SNOW  23  16  74 N20G28    29.69R WCI   8
RALEIGH NC     PTSUNNY   34  19  54 NW7       29.82R
ATLANTA GA     MOSUNNY   36  29  75 NW8       29.91R
NEW ORLEANS LA MOSUNNY   50  43  77 W3        30.11R
OKLAHOMA CITY  PTCLDY    46  33  60 CALM      30.15R
ALBUQUERQUE NM PTCLDY    34  26  72 W7        30.35R
SALT LAKE CITY PTCLDY    30  28  92 W5        30.18R FOG
LOS ANGELES CA MOCLDY    57  54  89 CALM      30.15R
BOISE ID       MOCLDY    27  27 100 CALM      30.10S FOG
SEATTLE WA     CLOUDY    50  46  86 S3        30.01R
$$

*** WEATHER ACROSS MANITOBA...SASKATCHEWAN AND ONTARIO ***
                ***ONTARIO***

CITY           SKY/WX    TMP DP  RH WIND       PRES   REMARKS
GERALDTON      FLURRIES  16  14  93 S5        30.10R WCI   9
THUNDER BAY    CLOUDY    21  19  93 SW2       30.14R
SIOUX LOOKOUT  FLURRIES  19  18  93 SW6       30.05R WCI  11
TORONTO        FLURRIES  10   5  79 N12       30.07R WCI  -4
BIG TROUT LK   CLOUDY    18  16  93 SW12G18   29.88R WCI   5
PICKLE LAKE    CLOUDY    18  16  93 SW8       29.99S WCI   7
DRYDEN         CLOUDY    19  18  93 SW8       30.04R WCI   9
KENORA         FOG       19  18  93 S10       30.03R VSB 1/4 WCI   8
$$
                *** MANITOBA***

CITY           SKY/WX    TMP DP  RH WIND       PRES   REMARKS
BRANDON        MOCLDY    25  25 100 E5        29.89S WCI  19
DAUPHIN        MOCLDY    36  32  87 W8        29.83F
ISLAND LAKE    FLURRIES  23  23 100 S6        29.85S WCI  16
PILOT MOUND      N/A     28  28 100 S12         N/A  WCI  18
THE PAS        FOG       19  19 100 N6        29.85R VSB 3/8 WCI  11
THOMPSON       CLOUDY    23  19  86 N13G21    29.80R WCI  11
WINNIPEG       CLOUDY    23  21  93 S15G23    29.99S FOG     WCI  10
LYNN LAKE      FLURRIES   5   0  78 NW9G17    29.90R WCI  -9
CHURCHILL      MOCLDY     3   1  92 NW25G35   29.74R BLWGSNOWWCI -20
GILLAM         FLURRIES  21  19  93 W10       29.73R WCI  10
$$
                ***SASKATCHEWAN***

CITY           SKY/WX    TMP DP  RH WIND       PRES   REMARKS
ESTEVAN        MOCLDY    25  23  93 E6        29.80S WCI  18
KINDERSLEY     PTCLDY    25  23  93 NE7       29.78S WCI  17
LLOYDMINSTER   MOCLDY    30  30 100 NE2       29.78S
PRINCE ALBERT  CLOUDY    28  27  93 SW3       29.82
REGINA         PTCLDY    25  25 100 SE9       29.78R WCI  15
YORKTON        CLOUDY    30  28  93 S7        29.79F WCI  23
N. BATTLEFORD  CLOUDY    30  28  93 VRB2      29.83S
LA RONGE       FLURRIES  27  25  93 N9        29.91R WCI  17
SASKATOON      PTCLDY    28  27  93 E6        29.81R WCI  22
SWIFT CURRENT  CLEAR     37  32  81 W14       29.75R
$$
NOTE: THESE ARE AUTOMATED STATIONS WITH LIMITED QUALITY CONTROL
      "FAIR" INDICATES FEW OR NO CLOUDS BELOW 12,000 FEET WITH NO
      SIGNIFICANT WEATHER AND/OR OBSTRUCTIONS TO VISIBILITY.
      SKY/WX - SKY CONDITION AND SIGNIFICANT WEATHER.
      TMP - AIR TEMPERATURE.    DP   - DEWPOINT TEMPERATURE.
      RH  - RELATIVE HUMIDITY.  PRES - PRESSURE.
      HX  - HEAT INDEX.         WCI  - WIND CHILL INDEX.
$


USA.gov is the U.S. government's official web portal to all federal, state and local government web resources and services.